Location: Zagreb
(45.8000°N, 16.0000°E)
Time: 01:10:58
(UTC+02:00)

Transit 2A Rocket - Pass Details

Date: 30 January 2022
Orbit: 592 x 909 km, 66.7° (Epoch: 26 May)

Event Time Altitude Azimuth Distance (km) Brightness Sun altitude
Rises 20:55:57 0° 294° (WNW) 3,543 9.3 -41.1°
Reaches altitude 10° 21:01:03 10° 331° (NNW) 2,580 8.1 -41.9°
Enters shadow 21:02:18 11° 343° (NNW) 2,514 8.0 -42.1°
Maximum altitude 21:02:28 11° 344° (NNW) 2,512 - -42.2°
Drops below altitude 10° 21:03:52 10° 358° (N) 2,555 - -42.4°
Sets 21:08:49 0° 35° (NE) 3,429 - -43.2°
